| time (UTC) | temp F | wind direction | speed MPH | gust MPH | rain 1hr in | rain 24hr in | rain mn in | humidity % | barometer mb |
| 20260503213501 | 55 | 303 | 6.0 | 14.0 | 0.00 | 0.00 | 0.00 | 66 | 1006.9 |
| 20260503212959 | 55 | 235 | 5.0 | 10.0 | 0.00 | 0.00 | 0.00 | 67 | 1007.0 |
| 20260503212501 | 55 | 220 | 5.0 | 10.0 | 0.00 | 0.00 | 0.00 | 67 | 1007.0 |
| 20260503211959 | 54 | 236 | 3.0 | 14.0 | 0.00 | 0.00 | 0.00 | 69 | 1007.0 |
| 20260503211459 | 54 | 211 | 4.0 | 15.0 | 0.00 | 0.00 | 0.00 | 68 | 1007.1 |
| 20260503210959 | 54 | 266 | 5.0 | 15.0 | 0.00 | 0.00 | 0.00 | 69 | 1007.1 |
| 20260503210500 | 54 | 210 | 8.0 | 14.0 | 0.00 | 0.00 | 0.00 | 68 | 1007.2 |
| 20260503210000 | 54 | 211 | 5.0 | 16.0 | 0.00 | 0.00 | 0.00 | 68 | 1007.3 |
| 20260503205458 | 53 | 233 | 8.0 | 17.0 | 0.00 | 0.00 | 0.00 | 69 | 1007.3 |
| 20260503204959 | 53 | 194 | 7.0 | 17.0 | 0.00 | 0.00 | 0.00 | 70 | 1007.4 |
| 20260503204458 | 53 | 224 | 7.0 | 15.0 | 0.00 | 0.00 | 0.00 | 71 | 1007.5 |
| 20260503203959 | 53 | 153 | 7.0 | 15.0 | 0.00 | 0.00 | 0.00 | 70 | 1007.7 |
| 20260503203459 | 53 | 235 | 7.0 | 18.0 | 0.00 | 0.00 | 0.00 | 69 | 1007.7 |
| 20260503202959 | 53 | 234 | 10.0 | 18.0 | 0.00 | 0.00 | 0.00 | 68 | 1007.8 |
| 20260503202459 | 53 | 286 | 9.0 | 18.0 | 0.00 | 0.00 | 0.00 | 67 | 1007.7 |
| 20260503201958 | 54 | 251 | 8.0 | 23.0 | 0.00 | 0.00 | 0.00 | 65 | 1007.9 |
| 20260503201458 | 54 | 219 | 8.0 | 17.0 | 0.00 | 0.00 | 0.00 | 64 | 1007.9 |
| 20260503200958 | 54 | 247 | 7.0 | 17.0 | 0.00 | 0.00 | 0.00 | 63 | 1007.9 |
| 20260503200458 | 54 | 224 | 9.0 | 17.0 | 0.00 | 0.00 | 0.00 | 62 | 1007.9 |
| 20260503200001 | 55 | 228 | 9.0 | 17.0 | 0.00 | 0.00 | 0.00 | 61 | 1008.1 |
| 20260503195459 | 55 | 266 | 6.0 | 20.0 | 0.00 | 0.00 | 0.00 | 60 | 1008.3 |
| 20260503195000 | 56 | 242 | 10.0 | 20.0 | 0.00 | 0.00 | 0.00 | 59 | 1008.1 |
| 20260503194459 | 56 | 298 | 9.0 | 17.0 | 0.00 | 0.00 | 0.00 | 59 | 1007.8 |
| 20260503194000 | 57 | 285 | 8.0 | 35.0 | 0.00 | 0.00 | 0.00 | 57 | 1007.9 |
| 20260503193459 | 58 | 247 | 9.0 | 35.0 | 0.00 | 0.00 | 0.00 | 55 | 1007.9 |
| 20260503192959 | 59 | 197 | 6.0 | 18.0 | 0.00 | 0.00 | 0.00 | 56 | 1007.8 |
| 20260503192459 | 60 | 213 | 7.0 | 17.0 | 0.00 | 0.00 | 0.00 | 55 | 1007.7 |
| 20260503191959 | 60 | 271 | 9.0 | 18.0 | 0.00 | 0.00 | 0.00 | 54 | 1007.7 |
| 20260503191459 | 61 | 255 | 5.0 | 18.0 | 0.00 | 0.00 | 0.00 | 55 | 1007.9 |
| 20260503190958 | 60 | 290 | 6.0 | 17.0 | 0.00 | 0.00 | 0.00 | 53 | 1007.9 |
| 20260503190459 | 61 | 211 | 7.0 | 20.0 | 0.00 | 0.00 | 0.00 | 52 | 1008.0 |
| 20260503185959 | 61 | 266 | 7.0 | 24.0 | 0.00 | 0.00 | 0.00 | 55 | 1008.1 |
| 20260503174957 | 61 | 210 | 10.0 | 23.0 | 0.00 | 0.00 | 0.00 | 49 | 1008.9 |
| 20260503174458 | 61 | 238 | 9.0 | 23.0 | 0.00 | 0.00 | 0.00 | 51 | 1008.9 |
| 20260503173958 | 62 | 220 | 9.0 | 21.0 | 0.00 | 0.00 | 0.00 | 50 | 1008.9 |
| 20260503173459 | 62 | 217 | 10.0 | 19.0 | 0.00 | 0.00 | 0.00 | 50 | 1009.0 |
| 20260503172958 | 61 | 266 | 5.0 | 16.0 | 0.00 | 0.00 | 0.00 | 53 | 1009.0 |
| 20260503172458 | 61 | 341 | 7.0 | 16.0 | 0.00 | 0.00 | 0.00 | 52 | 1009.1 |
| 20260503171958 | 61 | 231 | 5.0 | 13.0 | 0.00 | 0.00 | 0.00 | 53 | 1009.2 |
| 20260503130959 | 52 | 249 | 6.0 | 12.0 | 0.00 | 0.00 | 0.00 | 60 | 1010.5 |
| 20260503130458 | 51 | 286 | 5.0 | 11.0 | 0.00 | 0.00 | 0.00 | 61 | 1010.6 |
| 20260503110458 | 39 | 229 | 1.0 | 3.0 | 0.00 | 0.00 | 0.00 | 74 | 1010.7 |
| 20260503090458 | 38 | 199 | 0.0 | 3.0 | 0.00 | 0.00 | 0.00 | 67 | 1011.2 |
| 20260503081459 | 39 | 325 | 1.0 | 3.0 | 0.00 | 0.00 | 0.00 | 63 | 1011.6 |
| 20260503080959 | 39 | 210 | 0.0 | 2.0 | 0.00 | 0.00 | 0.00 | 62 | 1011.4 |
| 20260503080459 | 39 | 276 | 0.0 | 4.0 | 0.00 | 0.00 | 0.00 | 62 | 1011.5 |
| 20260503072458 | 40 | 238 | 4.0 | 9.0 | 0.00 | 0.00 | 0.00 | 60 | 1011.6 |
| 20260503071959 | 40 | 232 | 1.0 | 9.0 | 0.00 | 0.00 | 0.00 | 60 | 1011.6 |
| 20260503071458 | 40 | 271 | 3.0 | 8.0 | 0.00 | 0.00 | 0.00 | 60 | 1011.7 |
| 20260503070959 | 40 | 281 | 1.0 | 7.0 | 0.00 | 0.00 | 0.00 | 59 | 1011.8 |
| 20260503070458 | 40 | 5 | 3.0 | 7.0 | 0.00 | 0.00 | 0.00 | 59 | 1011.9 |
| 20260503054959 | 37 | 205 | 2.0 | 7.0 | 0.00 | 0.00 | 0.00 | 63 | 1012.9 |
| 20260503054459 | 37 | 266 | 1.0 | 4.0 | 0.00 | 0.00 | 0.00 | 64 | 1013.0 |
| 20260503053959 | 37 | 232 | 1.0 | 4.0 | 0.00 | 0.00 | 0.00 | 64 | 1013.0 |
| 20260503053458 | 37 | 216 | 1.0 | 3.0 | 0.00 | 0.00 | 0.00 | 65 | 1013.0 |
| 20260503052959 | 37 | 224 | 0.0 | 3.0 | 0.00 | 0.00 | 0.00 | 65 | 1013.1 |
| 20260503052458 | 37 | 214 | 0.0 | 3.0 | 0.00 | 0.00 | 0.00 | 66 | 1013.1 |
| 20260503051959 | 37 | 211 | 1.0 | 3.0 | 0.00 | 0.00 | 0.00 | 66 | 1013.2 |
| 20260503051458 | 37 | 226 | 0.0 | 2.0 | 0.00 | 0.00 | 0.00 | 66 | 1013.2 |
| 20260503050958 | 37 | 220 | 0.0 | 3.0 | 0.00 | 0.00 | 0.00 | 67 | 1013.2 |
| 20260503050459 | 37 | 189 | 0.0 | 3.0 | 0.00 | 0.00 | 0.00 | 67 | 1013.3 |
| 20260503050002 | 36 | 266 | 0.0 | 1.0 | 0.00 | 0.00 | 0.00 | 68 | 1013.4 |
| 20260503045459 | 36 | 266 | 0.0 | 2.0 | 0.00 | 0.00 | 0.00 | 68 | 1013.4 |
| 20260503044959 | 36 | 266 | 1.0 | 2.0 | 0.00 | 0.00 | 0.00 | 68 | 1013.5 |
| 20260503044458 | 36 | 247 | 0.0 | 0.0 | 0.00 | 0.00 | 0.00 | 68 | 1013.4 |
| 20260503043959 | 36 | 247 | 0.0 | 0.0 | 0.00 | 0.00 | 0.00 | 67 | 1013.4 |
| 20260503043459 | 37 | 247 | 0.0 | 1.0 | 0.00 | 0.00 | 0.00 | 67 | 1013.4 |
| 20260503042959 | 37 | 247 | 0.0 | 0.0 | 0.00 | 0.00 | 0.00 | 67 | 1013.4 |
| 20260503035458 | 38 | 247 | 0.0 | 0.0 | 0.00 | 0.00 | 0.00 | 64 | 1013.8 |
| 20260503035000 | 38 | 247 | 0.0 | 0.0 | 0.00 | 0.00 | 0.00 | 64 | 1013.9 |
| 20260503034459 | 38 | 247 | 0.0 | 0.0 | 0.00 | 0.00 | 0.00 | 64 | 1014.0 |
| 20260503033959 | 38 | 247 | 0.0 | 0.0 | 0.00 | 0.00 | 0.00 | 64 | 1013.9 |
| 20260503033459 | 38 | 247 | 0.0 | 0.0 | 0.00 | 0.00 | 0.00 | 64 | 1013.9 |
| 20260503033000 | 39 | 247 | 0.0 | 0.0 | 0.00 | 0.00 | 0.00 | 63 | 1013.9 |
| 20260503032459 | 39 | 247 | 0.0 | 0.0 | 0.00 | 0.00 | 0.00 | 63 | 1014.0 |
| 20260503032000 | 39 | 247 | 0.0 | 0.0 | 0.00 | 0.00 | 0.00 | 62 | 1014.0 |
| 20260503031459 | 39 | 247 | 0.0 | 0.0 | 0.00 | 0.00 | 0.00 | 61 | 1013.9 |
| 20260503030959 | 39 | 247 | 0.0 | 0.0 | 0.00 | 0.00 | 0.00 | 61 | 1014.1 |
| 20260503030459 | 39 | 247 | 0.0 | 1.0 | 0.00 | 0.00 | 0.00 | 61 | 1014.2 |
| 20260503030003 | 40 | 247 | 0.0 | 1.0 | 0.00 | 0.00 | 0.00 | 61 | 1014.1 |
| 20260503025459 | 40 | 213 | 0.0 | 0.0 | 0.00 | 0.00 | 0.00 | 60 | 1014.1 |
| 20260503024959 | 40 | 213 | 0.0 | 2.0 | 0.00 | 0.00 | 0.00 | 60 | 1014.2 |
| 20260503024500 | 40 | 213 | 0.0 | 2.0 | 0.00 | 0.00 | 0.00 | 59 | 1014.3 |
| 20260503024000 | 40 | 238 | 0.0 | 1.0 | 0.00 | 0.00 | 0.00 | 59 | 1014.3 |
| 20260503023459 | 41 | 238 | 0.0 | 1.0 | 0.00 | 0.00 | 0.00 | 59 | 1014.3 |
| 20260503022959 | 41 | 238 | 0.0 | 2.0 | 0.00 | 0.00 | 0.00 | 58 | 1014.3 |
| 20260503022500 | 41 | 238 | 0.0 | 2.0 | 0.00 | 0.00 | 0.00 | 58 | 1014.4 |
| 20260503022000 | 41 | 238 | 0.0 | 2.0 | 0.00 | 0.00 | 0.00 | 58 | 1014.4 |
| 20260503021459 | 42 | 242 | 1.0 | 3.0 | 0.00 | 0.00 | 0.00 | 57 | 1014.3 |
| 20260503020959 | 42 | 254 | 0.0 | 3.0 | 0.00 | 0.00 | 0.00 | 57 | 1014.3 |
| 20260503020500 | 42 | 284 | 0.0 | 3.0 | 0.00 | 0.00 | 0.00 | 56 | 1014.3 |
| 20260503020002 | 42 | 297 | 0.0 | 3.0 | 0.00 | 0.00 | 0.00 | 55 | 1014.3 |
| 20260503015459 | 43 | 228 | 0.0 | 1.0 | 0.00 | 0.00 | 0.00 | 55 | 1014.2 |
| 20260503014959 | 43 | 226 | 0.0 | 2.0 | 0.00 | 0.00 | 0.00 | 55 | 1014.2 |
| 20260503014459 | 43 | 223 | 0.0 | 2.0 | 0.00 | 0.00 | 0.00 | 54 | 1014.2 |
| 20260503014000 | 44 | 253 | 0.0 | 2.0 | 0.00 | 0.00 | 0.00 | 54 | 1014.2 |
| 20260503013459 | 44 | 211 | 0.0 | 3.0 | 0.00 | 0.00 | 0.00 | 53 | 1014.2 |
| 20260503012958 | 44 | 247 | 1.0 | 4.0 | 0.00 | 0.00 | 0.00 | 53 | 1014.1 |
| 20260503012500 | 44 | 245 | 1.0 | 4.0 | 0.00 | 0.00 | 0.00 | 52 | 1014.1 |
| 20260503012000 | 45 | 266 | 1.0 | 3.0 | 0.00 | 0.00 | 0.00 | 52 | 1014.1 |
| 20260503011459 | 45 | 255 | 0.0 | 2.0 | 0.00 | 0.00 | 0.00 | 51 | 1014.2 |
| 20260503010959 | 46 | 250 | 1.0 | 5.0 | 0.00 | 0.00 | 0.00 | 50 | 1014.1 |
| 20260503010459 | 46 | 266 | 0.0 | 6.0 | 0.00 | 0.00 | 0.00 | 50 | 1014.1 |
| 20260503010001 | 46 | 249 | 0.0 | 3.0 | 0.00 | 0.00 | 0.00 | 49 | 1014.0 |
| 20260503005459 | 47 | 255 | 1.0 | 6.0 | 0.00 | 0.00 | 0.00 | 49 | 1014.0 |
| 20260503004959 | 47 | 282 | 2.0 | 6.0 | 0.00 | 0.00 | 0.00 | 47 | 1013.9 |
| 20260503004459 | 48 | 282 | 1.0 | 5.0 | 0.00 | 0.00 | 0.00 | 46 | 1014.0 |
| 20260503003959 | 48 | 302 | 1.0 | 5.0 | 0.00 | 0.00 | 0.00 | 44 | 1014.0 |
| 20260503003459 | 49 | 276 | 0.0 | 3.0 | 0.00 | 0.00 | 0.00 | 39 | 1013.9 |
| 20260503002959 | 49 | 286 | 1.0 | 4.0 | 0.00 | 0.00 | 0.00 | 38 | 1013.8 |
| 20260503002459 | 49 | 276 | 1.0 | 5.0 | 0.00 | 0.00 | 0.00 | 37 | 1013.9 |
| 20260503001959 | 49 | 282 | 1.0 | 5.0 | 0.00 | 0.00 | 0.00 | 37 | 1013.8 |
| 20260503001459 | 50 | 260 | 2.0 | 6.0 | 0.00 | 0.00 | 0.00 | 37 | 1013.8 |
| 20260503000959 | 50 | 309 | 4.0 | 6.0 | 0.00 | 0.00 | 0.00 | 36 | 1013.8 |
| 20260502233500 | 51 | 342 | 4.0 | 8.0 | 0.00 | 0.00 | 0.00 | 35 | 1014.0 |
| 20260502232959 | 51 | 286 | 3.0 | 9.0 | 0.00 | 0.00 | 0.00 | 35 | 1014.0 |
| 20260502232459 | 51 | 308 | 2.0 | 11.0 | 0.00 | 0.00 | 0.00 | 35 | 1014.0 |
| 20260502231959 | 51 | 286 | 6.0 | 11.0 | 0.00 | 0.00 | 0.00 | 34 | 1014.0 |
| 20260502231459 | 51 | 276 | 4.0 | 11.0 | 0.00 | 0.00 | 0.00 | 35 | 1014.0 |
| 20260502230959 | 51 | 322 | 2.0 | 9.0 | 0.00 | 0.00 | 0.00 | 34 | 1014.0 |
| 20260502230459 | 51 | 276 | 4.0 | 9.0 | 0.00 | 0.00 | 0.00 | 34 | 1014.0 |
| 20260502225959 | 52 | 325 | 4.0 | 12.0 | 0.00 | 0.00 | 0.00 | 34 | 1014.0 |
| 20260502225459 | 52 | 330 | 4.0 | 12.0 | 0.00 | 0.00 | 0.00 | 34 | 1014.0 |
| 20260502224959 | 52 | 342 | 3.0 | 11.0 | 0.00 | 0.00 | 0.00 | 33 | 1014.0 |
| 20260502224459 | 52 | 297 | 3.0 | 9.0 | 0.00 | 0.00 | 0.00 | 35 | 1014.0 |
| 20260502223959 | 52 | 301 | 4.0 | 11.0 | 0.00 | 0.00 | 0.00 | 37 | 1014.0 |
| 20260502223459 | 52 | 230 | 4.0 | 11.0 | 0.00 | 0.00 | 0.00 | 41 | 1014.0 |
| 20260502222959 | 52 | 334 | 4.0 | 6.0 | 0.00 | 0.00 | 0.00 | 39 | 1014.1 |
| 20260502222459 | 52 | 326 | 2.0 | 9.0 | 0.00 | 0.00 | 0.00 | 41 | 1014.0 |
| 20260502221958 | 52 | 316 | 3.0 | 10.0 | 0.00 | 0.00 | 0.00 | 44 | 1014.0 |
| 20260502221458 | 52 | 211 | 3.0 | 7.0 | 0.00 | 0.00 | 0.00 | 43 | 1014.0 |
| 20260502220959 | 51 | 294 | 2.0 | 6.0 | 0.00 | 0.00 | 0.00 | 44 | 1014.1 |
| 20260502220459 | 51 | 247 | 2.0 | 12.0 | 0.00 | 0.00 | 0.00 | 46 | 1014.0 |
| 20260502220002 | 52 | 271 | 5.0 | 12.0 | 0.00 | 0.00 | 0.00 | 44 | 1014.0 |
| 20260502215459 | 52 | 313 | 3.0 | 11.0 | 0.00 | 0.00 | 0.00 | 44 | 1014.1 |
| 20260502214959 | 52 | 240 | 3.0 | 8.0 | 0.00 | 0.00 | 0.00 | 44 | 1014.1 |
| 20260502214458 | 52 | 214 | 3.0 | 6.0 | 0.00 | 0.00 | 0.00 | 46 | 1014.1 |
| 20260502213958 | 51 | 271 | 2.0 | 9.0 | 0.00 | 0.00 | 0.00 | 47 | 1014.2 |